Fort Knox, KY

10:35 PM EST on February 10, 2016 (GMT -0500)
Godman Army Air Field

Weather History for KFTK - December, 2011

Change the Weather History Date:

Saturday, December 24, 2011

  Actual Average Record
Temperature  
Mean Temperature 37 °F -  
Max Temperature 45 °F 39 °F 64 °F (2015)
Min Temperature 29 °F 24 °F 1 °F (2004)
Degree Days  
Heating Degree Days 28    
Moisture  
Dew Point 31 °F    
Average Humidity 85    
Maximum Humidity 99    
Minimum Humidity 61    
Precipitation  
Precipitation 0.00 in - - ()
Sea Level Pressure  
Sea Level Pressure 30.41 in    
Wind  
Wind Speed 4 mph (SSW)    
Max Wind Speed 9 mph    
Max Gust Speed -    
Visibility 10 miles    
Events      
Averages and records for this station are not official NWS values.
T = Trace of Precipitation, MM = Missing Value Source: NWS Daily Summary

Daily Weather History Graph

Daily Weather History Graph

Search for Another Location

Airport or City:

Trip Planner

Search our weather history database for the weather conditions in past years. The results will help you decide how hot, cold, wet, or windy it might be!

Date:

Astronomy

Dec. 24, 2011 Rise Set
Actual Time 7:57 AM EST 5:29 PM EST
Civil Twilight 7:27 AM EST 5:59 PM EST
Nautical Twilight 6:54 AM EST 6:32 PM EST
Astronomical Twilight 6:22 AM EST 7:04 PM EST
Moon 7:44 AM EST (12/24) 5:41 PM EST (12/24)
Length of Visible Light 10h 31m
Length of Day
9h 32m
Waning Crescent, 0% of the Moon is Illuminated
Dec 24
Waning Crescent
Dec 24
New
Jan 1
First Quarter
Jan 9
Full
Jan 16
Last Quarter

Hourly Weather History & Observations

Time (EST) Temp. Windchill Dew Point Humidity Pressure Visibility Wind Dir Wind Speed Gust Speed Precip Events Conditions
12:55 AM 32.5 °F 27.1 °F 32.4 °F 99% 30.38 in 10.0 mi SW 5.8 mph - N/A   Scattered Clouds
1:55 AM 32.5 °F 29.3 °F 31.5 °F 96% 30.38 in 10.0 mi West 3.5 mph - N/A   Scattered Clouds
2:55 AM 32.5 °F - 31.5 °F 96% 30.40 in 10.0 mi Calm Calm - N/A   Scattered Clouds
3:55 AM 32.4 °F - 31.8 °F 98% 30.42 in 10.0 mi Calm Calm - N/A   Mostly Cloudy
4:55 AM 32.4 °F 29.1 °F 31.1 °F 95% 30.43 in 10.0 mi SW 3.5 mph - N/A   Mostly Cloudy
5:55 AM 31.6 °F - 30.4 °F 95% 30.44 in 10.0 mi SSW 2.3 mph - N/A   Mostly Cloudy
6:55 AM 31.5 °F - 31.3 °F 99% 30.45 in 10.0 mi South 2.3 mph - N/A   Mostly Cloudy
7:19 AM 32.0 °F - 30.2 °F 93% 30.42 in 10.0 mi South 1.2 mph - N/A   Scattered Clouds
7:55 AM 29.3 °F - 29.1 °F 99% 30.45 in 6.0 mi Calm Calm - N/A   Clear
8:55 AM 29.8 °F 26.3 °F 29.7 °F 99% 30.46 in 10.0 mi SSW 3.5 mph - N/A   Clear
9:55 AM 34.0 °F 28.8 °F 33.6 °F 99% 30.48 in 10.0 mi SSW 5.8 mph - N/A   Clear
10:55 AM 36.9 °F 30.1 °F 31.8 °F 82% 30.48 in 10.0 mi SSW 9.2 mph - N/A   Clear
11:55 AM 38.1 °F 32.3 °F 32.2 °F 79% 30.45 in 10.0 mi SSW 8.1 mph - N/A   Clear
12:55 PM 39.9 °F 37.8 °F 31.8 °F 73% 30.42 in 10.0 mi Variable 3.5 mph - N/A   Clear
1:55 PM 42.6 °F 37.8 °F 33.3 °F 69% 30.41 in 10.0 mi WSW 8.1 mph - N/A   Clear
2:55 PM 43.5 °F 38.9 °F 32.9 °F 66% 30.38 in 10.0 mi SW 8.1 mph - N/A   Clear
3:55 PM 45.1 °F 41.4 °F 32.7 °F 62% 30.36 in 10.0 mi SW 6.9 mph - N/A   Clear
4:55 PM 43.2 °F 38.4 °F 30.6 °F 61% 30.38 in 10.0 mi South 8.1 mph - N/A   Clear
5:55 PM 40.3 °F 38.2 °F 29.5 °F 65% 30.38 in 10.0 mi SW 3.5 mph - N/A   Clear
6:55 PM 35.1 °F 30.1 °F 29.8 °F 81% 30.39 in 10.0 mi South 5.8 mph - N/A   Clear
7:55 PM 36.0 °F 31.1 °F 29.5 °F 77% 30.39 in 10.0 mi South 5.8 mph - N/A   Clear
8:55 PM 34.0 °F - 28.9 °F 82% 30.38 in 10.0 mi Calm Calm - N/A   Clear
9:55 PM 32.9 °F 29.8 °F 28.9 °F 85% 30.38 in 10.0 mi SW 3.5 mph - N/A   Clear
10:55 PM 32.0 °F - 29.1 °F 89% 30.38 in 10.0 mi Calm Calm - N/A   Clear
11:55 PM 32.5 °F - 28.9 °F 87% 30.38 in 10.0 mi Calm Calm - N/A   Scattered Clouds